EXPRESS-AT1             
1 39612U 14010A   19261.49712525  .00000075  00000-0  00000+0 0  9992
2 39612   0.0495 317.3891 0000676 322.4989 312.2116  1.00271809 20342
EXPRESS-AT2             
1 39613U 14010B   19260.99216021 -.00000285  00000-0  00000+0 0  9991
2 39613   0.0471 318.4697 0000426 315.8298 219.3643  1.00273414 20172
BREEZE-M R/B            
1 39614U 14010C   19259.93971381 -.00000147  00000-0  00000+0 0  9998
2 39614   4.5116  76.0356 0709424   1.0480 359.3990  0.90580093 18223